Powrót do katalogu

FENGYUN 1C DEB

AktywnyPO
NORAD 37908·DEBRIS·🇨🇳 China

Wystrzelony May 10, 1999 z Taiyuan Satellite Launch Center

Loading…

Następne Przeloty (najbliższe 24 godziny)

TLE

Starzejące sięSource: Space-Track

Epoka: Sep 10, 2026, 08:53 UTC

1 37908U 99025ENH 26253.37082822  .00000779  00000-0  26913-3 0  9999
2 37908  99.1204 306.8816 0074730  84.2662 276.7037 14.37293966679627

Śledź FENGYUN 1C DEB w czasie rzeczywistym z AllMySat

Download on the App Store